{"data":{"norad_id":64067,"epoch":"2026-09-20T08:15:07.621344Z","epoch_age_seconds":157089,"freshness":"FRESH","line1":"1 64067U 25107D   26263.34383821  .00157973  00000+0  12046-2 0  9995","line2":"2 64067  43.0003   4.7873 0002720 268.5904  91.4652 15.70970754 77915","mean_motion":15.70970754,"eccentricity":0.000272,"inclination_deg":43.0003,"raan_deg":4.7873,"arg_perigee_deg":268.5904,"mean_anomaly_deg":91.4652,"bstar":0.0012046,"rev_number":7791,"period_min":91.663068604777,"perigee_km":354.28964981063,"apogee_km":357.95308636287,"semimajor_km":6734.2583680867,"source":"CELESTRAK","updated_at":"2026-09-21T09:00:35.192132Z"}}